Regional Weather Roundup
Issued by NWS Cleveland, OH

Home | Current Version | Previous Version | Text Only | Print | Product List | Glossary On
Versions: 1 2 3 4 5 6 7 8 9 10 11 12 13 14 15 16 17 18 19 20 21 22 23 24 25 26 27 28 29 30 31 32 33 34 35 36 37 38 39 40 41 42 43 44 45 46 47 48 49 50
000
ASUS41 KCLE 032002
RWRCLE
OHIO REGIONAL WEATHER ROUNDUP
NATIONAL WEATHER SERVICE CLEVELAND, OH
400 PM EDT WED JUN 03 2015

NOTE: "FAIR" INDICATES FEW OR NO CLOUDS BELOW 12,000 FEET WITH NO
SIGNIFICANT WEATHER AND/OR OBSTRUCTIONS TO VISIBILITY.

OHZ001>008-015>018-024>027-034-035-043-044-032100-
   NORTHWEST OHIO

CITY           SKY/WX    TMP DP  RH WIND       PRES   REMARKS
DEFIANCE       PTSUNNY   74  56  53 E7        30.05F
FINDLAY        PTSUNNY   73  57  57 E10       30.04F
TOLEDO EXPRESS SUNNY     72  50  45 E9        30.06F
TOLEDO EXEC    SUNNY     69  54  58 NE12      30.08F
LIMA           CLOUDY    71  58  63 E6        30.06F
$$

OHZ009>014-019>023-028>033-038-089-032100-
   NORTHEAST OHIO

CITY           SKY/WX    TMP DP  RH WIND       PRES   REMARKS
CLE-HOPKINS    MOSUNNY   68  54  60 N12       30.09F
CLE-LAKEFRONT  SUNNY     62  54  74 NE17      30.07S
CUY CO. ARPT   MOSUNNY   77  57  50 SE14      30.08F
LORAIN-ELYRIA  SUNNY     69  55  60 NE13      30.08S
ASHTABULA      MOSUNNY   72  56  57 SE12G18   30.11F
AKRON-CANTON   MOSUNNY   74  57  55 E9        30.08F
WOOSTER        PTSUNNY   71  59  65 S7        30.08F
MANSFIELD      CLOUDY    69  58  67 E7        30.08F
YOUNGSTOWN     CLOUDY    67  55  65 SE13      30.11R
$$

OHZ042-051>053-060>062-070>072-077>081-032100-
  SOUTHWEST OHIO

CITY           SKY/WX    TMP DP  RH WIND       PRES   REMARKS
CINC-COVINGTON PTSUNNY   70  56  61 CALM      30.04F
CINC-LUNKEN    CLOUDY    71  58  63 CALM      30.04F
HAMILTON       PTSUNNY   73  59  61 CALM      30.05F
DAYTON         CLOUDY    72  58  61 E5        30.06F
WRIGHT-PAT AFB PTSUNNY   74  58  56 SE3       30.04F
DAYTON GENERAL PTSUNNY   70  57  63 E6        30.04F
WILMINGTON     CLOUDY    70  56  61 SE6       30.05F
$$

OHZ036-037-039>041-045>050-054>059-063>069-073>076-082>088-032100-
  CENTRAL AND SOUTHEAST OHIO

CITY           SKY/WX    TMP DP  RH WIND       PRES   REMARKS
COLUMBUS       CLOUDY    71  60  68 E5        30.05F
OSU AIRPORT    CLOUDY    70  58  65 CALM      30.06F
BOLTON FIELD   CLOUDY    73  61  64 E5        30.06F
RICKENBACK AFB NOT AVBL
NEWARK         CLOUDY    72  60  66 E7        30.05F
MARION         CLOUDY    69  57  65 SE8       30.07F
LANCASTER      CLOUDY    72  60  66 E3        30.06F
ZANESVILLE     NOT AVBL
NEW PHILLY     CLOUDY    74  58  57 E8        30.08S
$$


USA.gov is the U.S. government's official web portal to all federal, state and local government web resources and services.